Regional Weather Roundup
Issued by NWS

Home | Current Version | Previous Version | Graphics & Text | Print | Product List | Glossary On
Versions: 1 2 3 4 5 6 7 8 9 10 11 12 13 14 15 16 17 18 19 20 21 22 23 24 25 26 27
000
ASUS45 KBOU 272207
RWRCO

WEATHER ROUNDUP FOR COLORADO
NATIONAL WEATHER SERVICE DENVER/BOULDER CO
400 PM MDT SAT AUG 27 2016

NOTE: "FAIR" INDICATES FEW OR NO CLOUDS BELOW 12000 FEET WITH NO
SIGNIFICANT WEATHER AND/OR OBSTRUCTIONS TO VISIBILITY.

COZ001>005-013-030-031-272300-
...NORTHWEST COLORADO...

CITY           SKY/WX    TMP DP  RH WIND       PRES   REMARKS
CRAIG          FAIR      80  25  13 SW8G20    30.14F
HAYDEN         FAIR      75  30  19 NW12      30.16F
MEEKER         FAIR      74  37  26 SW13      30.16S
MOUNT WERNER   NOT AVBL
STEAMBOAT SPGS FAIR      74  31  20 SW7       30.18F
WALDEN         FAIR      70  25  18 W13G18    30.27S
$$

COZ006>008-011-272300-
...WEST CENTRAL VALLEYS...

CITY           SKY/WX    TMP DP  RH WIND       PRES   REMARKS
GRAND JUNCTION FAIR      77  41  27 W5        30.10F
MONTROSE       CLOUDY    69  48  47 W8        30.20R
EAGLE          PTSUNNY   73  30  20 CALM      30.20F
RIFLE          FAIR      79  44  28 N6        30.13F
DELTA          NOT AVBL
NUCLA          CLOUDY   N/A N/A N/A N6        30.23S
$$

COZ017>023-064>068-272300-
...SOUTHWEST COLORADO...

CITY           SKY/WX    TMP DP  RH WIND       PRES   REMARKS
DURANGO        FAIR      72  39  30 SW10      30.20S
CORTEZ         PTSUNNY   69  49  48 W14       30.18F
PAGOSA SPRINGS FAIR      69  38  31 NW10G24   30.26F
TELLURIDE      LGT RAIN  49  47  96 CALM      30.41F
WOLF CREEK PAS FAIR      46  34  61 SW10G22   30.55F
$$

COZ009-010-012-014-032>034-037-058>063-272300-
...CENTRAL COLORADO...

CITY           SKY/WX    TMP DP  RH WIND       PRES   REMARKS
ASPEN          PTSUNNY   65  38  36 CALM      30.28F
BUENA VISTA    LGT RAIN  64  37  36 W3        30.27R
COPPER MTN     CLOUDY    52  32  46 W6        30.54S
BERTHOUD PASS  PTSUNNY   46  34  61 N15G21    30.55S
COTTONWOOD PAS CLOUDY    59  34  38 SE3       30.41R
GUNNISON       FAIR      57  45  62 SW8       30.35S
KREMMLING      FAIR      77  23  13 SW5       30.21S
LEADVILLE      CLOUDY    53  35  50 NW8       30.40R
MONARCH PASS   CLOUDY    46  36  66 SW18      30.64S
SALIDA         PTSUNNY   71  37  29 S9        30.31S
SUNLIGHT       PTSUNNY   54  36  50 CALM      30.50S
WILKERSON PASS CLOUDY    57  32  38 SW3       30.51S
$$

COZ069>075-272300-
...SAN LUIS VALLEY/SANGRE DE CRISTO MOUNTAINS...

CITY           SKY/WX    TMP DP  RH WIND       PRES   REMARKS
ALAMOSA        FAIR      70  39  32 SE13      30.22F
LA VETA PASS   PTSUNNY   63  32  31 S3        30.41F
SAGUACHE       CLOUDY    61  43  51 N12G17    30.29F
$$

COZ035-036-038>040-272300-
...NORTHERN COLORADO FRONT RANGE...

CITY           SKY/WX    TMP DP  RH WIND       PRES   REMARKS
DENVER INTL AP FAIR      85  34  16 NW8       30.07F
DMNS CITY PARK   N/A     80  31  16 E2        30.06S
AURORA         MOSUNNY   82  34  17 E7        30.09F
FRONT RANGE AP MOSUNNY   84  32  15 SE5G16    30.09F
ERIE MUNI ARPT FAIR      85  29  13 S8        30.04F
BOULDER MUN AP FAIR      79  36  21 SE7       30.04F
CENTENNIAL     FAIR      80  31  16 VRB6      30.10F
BROOMFIELD     PTSUNNY   84  32  15 SE9       30.08F
FORT COLLINS   FAIR      84  37  18 SE6       30.00F
LONGMONT       FAIR      87  33  15 SE8       30.04F
$$

COZ041-046-047-076>085-087-088-272300-
...PIKES PEAK/PALMER DIVIDE AND SOUTHERN FOOTHILLS...

CITY           SKY/WX    TMP DP  RH WIND       PRES   REMARKS
COLO. SPRINGS  PTSUNNY   81  31  16 W8        30.13F
A. F. ACADEMY  FAIR      77  34  20 VRB1      30.13F
SCHRIEVER AFB  NOT AVBL
ELLICOTT       NOT AVBL
FALCON         FAIR      77  32  19 CALM      30.19S
FORT CARSON    FAIR      80  36  20 CALM      30.09F
LIMON          FAIR      78  47  33 E16G25    30.09F
MONUMENT HILL  FAIR      73  34  23 CALM      30.20F
TRINIDAD       FAIR      82  38  20 SE9       30.10S
$$

COZ042>045-048>051-090-091-272300-
...NORTHEAST COLORADO...

CITY           SKY/WX    TMP DP  RH WIND       PRES   REMARKS
GREELEY ARPT   FAIR      84  41  21 SE8       30.04S
AKRON          PTSUNNY   82  50  32 SE20G25   30.05S
BURLINGTON     FAIR      76  54  46 NE6       30.06S
WRAY           FAIR      84  54  34 SE17      30.01F
STERLING       FAIR      86  46  25 SE5       30.00F
HOLYOKE        FAIR      84  54  34 SE10G17   30.01F
FORT MORGAN    FAIR      84  35  17 SE8       30.05S
$$

COZ086-089-092>099-272300-
...SOUTHEAST COLORADO...

CITY           SKY/WX    TMP DP  RH WIND       PRES   REMARKS
PUEBLO         FAIR      88  36  15 VRB3      30.00F
LA JUNTA       FAIR      89  42  19 S10       29.99F
LAMAR          FAIR      88  49  25 S6        29.96F
SPRINGFIELD      N/A     84  53  34 VRB6      30.00F
$$




USA.gov is the U.S. government's official web portal to all federal, state and local government web resources and services.